{"data":{"norad_id":56022,"intl_designator":"2023-042AN","name":"STARLINK-5783","alt_names":[],"object_type":"PAYLOAD","status":"ACTIVE","operator":null,"country":"US","launch_date":"2023-03-24","launch_site_code":"AFETR","launch_vehicle":null,"mission":null,"orbit_class":"UNKNOWN","rcs_meters":null,"size_class":null,"mass_kg":null,"dimensions":null,"purposes":["comms"],"wikipedia_slug":null,"has_3d_model":false,"image_url":null,"decayed_at":null,"tle_current":{"epoch":"2026-05-24T21:20:39.269760Z","epoch_age_seconds":77932,"freshness":"FRESH","line1":"1 56022U 23042AN  26144.88934340 -.00000251  00000+0  41356-6 0  9995","line2":"2 56022  43.0030 334.5165 0001284 268.8303  91.2402 15.27573990174692","mean_motion":15.2757399,"eccentricity":0.0001284,"inclination_deg":43.003,"raan_deg":334.5165,"arg_perigee_deg":268.8303,"mean_anomaly_deg":91.2402,"bstar":4.1356e-7,"rev_number":17469,"period_min":94.267119591372,"perigee_km":482.1861135953,"apogee_km":483.94807080618,"semimajor_km":6861.2040922007,"source":"CELESTRAK","updated_at":"2026-05-25T13:38:17.948796Z"}}}